Showing default

KUIPER-00095, 65134

Orbit data source: Space-Track

KUIPER-00095, 65134 is a payload satellite owned by Kuiper Systems (US) in LEO that was launched on Mon, 11 Aug 2025 UTC via an FALCON 9 launch vehicle from the Air Force Eastern Test Range (AFETR). Payload-class satellites include a variety of spacecraft equipped with specific instruments for various scientific and technological missions. These include communications satellites like Starlink; space stations such as the ISS; scientific satellites like the Hubble; Earth observation satellites from companies like Planet Labs, Umbra, and HawkEye 360; GPS; miniature CubeSats for education and research; and military/defense satellites.

Loading next visibility...
Identifier
65134, 2025-171C
Orbit
LEO
Country
Flag of USUS
Related business
Manufacturer
Kuiper Systems
Mission
Operational Commercial Communications
Bus & Motor
KUIPER, Unknown motor
Mass
~490 kg wet, ~490 kg dry
Launch date (UTC)
2025-08-11 (10 months ago)
Launch vehicle
FALCON 9
Launch site
Air Force Eastern Test Range (AFETR)
Object type
Payload
Rocket body
Debris
Shape & HBR
Box + 2 Pan, 3.4 m
Radar Cross Section
2.326 m², Large (>1 m²)

Expand to show TLE details & history
Last TLE update: 11 hours ago

TLE from 11 hours ago
0 KUIPER-00095
1 65134U 25171C   26171.37001723  .00001731  00000-0  25603-3 0  9996
2 65134  51.8978  51.5760 0000778  95.7598 264.3453 14.79936488 48275
Epoch: 2026-06-20T08:52Z
TLE epoch observation values (Epoch: 2026-06-20T08:52:49.488Z)
Latitude
-0.00003°
Longitude
9.78416°
Altitude
630.325 km
Speed
7.544 km/s
True Right ascension
03h 26m 18s
True Declination
0° 00' 00"
Sunlit
Object was in daylight at epoch
Visualization orbit readout
Latitude
Unknown
Longitude
Unknown
Altitude
Unknown
Speed
Unknown
Apparent Right ascension
Unknown
Apparent Declination
Unknown
Sunlit
N/A
Visualization observer readout
Local Sidereal Time
07:14:59
Azimuth
Unknown
Elevation
Unknown
Doppler factor
Unknown
Orbital elements
Apogee altitude
630.521 km
Perigee altitude
629.431 km
Semi-major axis
7,008.113 km
Eccentricity
0.00008
Inclination
51.8978°
RAAN
51.576°
Arg. of periapsis
95.7598°
True anomaly
264.33643°
Mean anomaly
264.3453°
Eccentric anomaly
264.34086°
Mean motion
3.69949 °/min
Orbital period
97.31 mins
BSTAR
0.00025603
Loading maneuver chart data...
Computing Atmospheric mass density...
Loading historical data...
Loading historical data...
Loading historical data...
Loading historical data...
Loading historical data...
Loading historical data...
Loading historical data...

Documentation

Showing up to 5 results
|